Weather History for Dubuque, IA

Change the Weather History Date:

Wednesday, January 2, 2008

  Actual Average Record
Temperature  
Mean Temperature 5 °F 19 °F  
Max Temperature 11 °F 27 °F 57 °F (1897)
Min Temperature -2 °F 12 °F -22 °F (1879)
Degree Days  
Heating Degree Days 60 46  
Month to date heating degree days 116 92  
Since 1 July heating degree days 2794 2902  
Cooling Degree Days 0 0  
Month to date cooling degree days 0 0  
Year to date cooling degree days 0 0  
Moisture  
Dew Point -2 °F    
Average Humidity 77    
Maximum Humidity 87    
Minimum Humidity 66    
Precipitation  
Precipitation 0.00 in 0.04 in 0.88 in (1966)
Month to date precipitation 0.01 0.08  
Year to date precipitation 0.01 0.08  
Snow  
Snow 0.00 in 0.40 in - ()
Month to date snowfall 0.3 0.7  
Since 1 July snowfall 23.1 15.3  
Snow Depth 11.00 in    
Sea Level Pressure  
Sea Level Pressure 30.72 in    
Wind  
Wind Speed 9 mph (NW)    
Max Wind Speed 21 mph    
Max Gust Speed 26 mph    
Visibility 10 miles    
Events      
T = Trace of Precipitation, MM = Missing Value Source: NWS Daily Summary

Daily Weather History Graph

Daily Weather History Graph

Search for Another Location

Airport:

Trip Planner

Search our weather history database for the weather conditions in past years. The results will help you decide how hot, cold, wet, or windy it might be!

Date:

Astronomy

Jan. 02, 2008 Rise Set
Actual Time 7:32 AM CST 4:41 PM CST
Civil Twilight 7:00 AM CST 5:13 PM CST
Nautical Twilight 6:25 AM CST 5:48 PM CST
Astronomical Twilight 5:51 AM CST 6:22 PM CST
Moon 2:20 AM CST (1/2) 12:19 PM CST (1/2)
Length of Visible Light 10h 12m
Length of Day
9h 09m
Waning Crescent, 28% of the Moon is Illuminated
Jan 2
Waning Crescent
Jan 8
New
Jan 15
First Quarter
Jan 22
Full
Jan 29
Last Quarter

Hourly Weather History & Observations

Time (CST) Temp. Windchill Dew Point Humidity Pressure Visibility Wind Dir Wind Speed Gust Speed Precip Events Conditions
12:53 AM -0.0 °F -17.1 °F -6.0 °F 76% 30.55 in 10.0 mi NW 11.5 mph - N/A   Clear
1:53 AM -0.0 °F -18.7 °F -5.1 °F 79% 30.56 in 10.0 mi NNW 13.8 mph - N/A   Clear
2:53 AM 1.0 °F -14.0 °F -5.1 °F 75% 30.58 in 10.0 mi NW 9.2 mph - N/A   Clear
3:53 AM 1.9 °F -13.8 °F -4.0 °F 76% 30.60 in 10.0 mi NW 10.4 mph 18.4 mph N/A   Partly Cloudy
4:53 AM 1.9 °F -16.2 °F -2.9 °F 80% 30.62 in 10.0 mi NNW 13.8 mph - N/A   Clear
5:53 AM 3.0 °F -15.5 °F -2.9 °F 76% 30.65 in 10.0 mi NNW 15.0 mph 24.2 mph N/A   Mostly Cloudy
6:53 AM 1.9 °F -18.7 °F -2.9 °F 80% 30.67 in 9.0 mi North 18.4 mph - N/A   Clear
7:53 AM 1.9 °F -15.5 °F -2.9 °F 80% 30.70 in 10.0 mi North 12.7 mph - N/A   Clear
8:53 AM 3.0 °F -11.5 °F -2.9 °F 76% 30.73 in 10.0 mi North 9.2 mph - N/A   Clear
9:53 AM 5.0 °F -10.0 °F -2.0 °F 73% 30.76 in 10.0 mi North 10.4 mph - N/A   Clear
10:53 AM 8.1 °F -4.3 °F -0.0 °F 70% 30.78 in 10.0 mi North 8.1 mph - N/A   Clear
11:53 AM 9.0 °F -3.2 °F -0.0 °F 67% 30.77 in 10.0 mi NNW 8.1 mph - N/A   Clear
12:53 PM 10.9 °F -1.8 °F 1.9 °F 67% 30.76 in 10.0 mi West 9.2 mph - N/A   Clear
1:53 PM 9.0 °F -5.9 °F 1.0 °F 70% 30.77 in 10.0 mi West 11.5 mph - N/A   Clear
2:53 PM 10.0 °F -2.9 °F 1.9 °F 70% 30.77 in 10.0 mi West 9.2 mph - N/A   Clear
3:53 PM 8.1 °F -2.0 °F 1.0 °F 73% 30.77 in 10.0 mi West 5.8 mph - N/A   Clear
4:53 PM 6.1 °F -7.8 °F -0.9 °F 73% 30.79 in 10.0 mi West 9.2 mph - N/A   Clear
5:53 PM 5.0 °F -10.0 °F -2.0 °F 73% 30.79 in 10.0 mi WNW 10.4 mph - N/A   Clear
6:53 PM 3.9 °F -9.4 °F -2.0 °F 76% 30.79 in 10.0 mi WNW 8.1 mph - N/A   Clear
7:53 PM 1.0 °F - -2.9 °F 83% 30.79 in 10.0 mi Calm Calm - N/A   Clear
8:53 PM 1.9 °F -9.2 °F -2.9 °F 80% 30.79 in 10.0 mi West 5.8 mph - N/A   Clear
9:53 PM -0.0 °F - -4.0 °F 83% 30.79 in 10.0 mi Calm Calm - N/A   Clear
10:53 PM -0.9 °F - -5.1 °F 83% 30.79 in 10.0 mi Calm Calm - N/A   Clear
11:53 PM -0.9 °F -11.0 °F -4.0 °F 87% 30.77 in 10.0 mi WSW 4.6 mph - N/A   Clear